This is the latest recevied weather packets stored in our database for station/object CE7LGA-10. If no packets are shown the sender has not sent any weather packets the latest 10 day(s).
| Time | Temp. | Humidity | Pressure | Rain* | Wind** | Luminosity | Snow |
|---|---|---|---|---|---|---|---|
| 1777602130 | 15° C | 71% | 1000.8 hPa | - | - | - | - |
| 1777601230 | 15° C | 71% | 1001 hPa | - | - | - | - |
| 1777600329 | 14.44° C | 71% | 1000.9 hPa | - | - | - | - |
| 1777599429 | 14.44° C | 73% | 1000.8 hPa | - | - | - | - |
| 1777598529 | 14.44° C | 72% | 1000.2 hPa | - | - | - | - |
| 1777597629 | 14.44° C | 72% | 1000 hPa | - | - | - | - |
| 1777596729 | 14.44° C | 71% | 999.6 hPa | - | - | - | - |
| 1777595831 | 14.44° C | 72% | 999.4 hPa | - | - | - | - |
| 1777594931 | 15° C | 73% | 999.6 hPa | - | - | - | - |
| 1777594031 | 15° C | 72% | 999.6 hPa | - | - | - | - |
| 1777593131 | 15° C | 73% | 999.7 hPa | - | - | - | - |
| 1777592230 | 15° C | 76% | 999.5 hPa | - | - | - | - |
| 1777591330 | 14.44° C | 72% | 999.4 hPa | - | - | - | - |
| 1777590430 | 14.44° C | 70% | 999.5 hPa | - | - | - | - |
| 1777589530 | 14.44° C | 70% | 999.3 hPa | - | - | - | - |
| 1777588630 | 14.44° C | 71% | 999.3 hPa | - | - | - | - |
| 1777587730 | 14.44° C | 71% | 999.3 hPa | - | - | - | - |
| 1777586830 | 15° C | 71% | 999.2 hPa | - | - | - | - |
| 1777585930 | 15° C | 71% | 999.2 hPa | - | - | - | - |
| 1777585030 | 15° C | 70% | 999.2 hPa | - | - | - | - |
| 1777584130 | 15° C | 70% | 999.2 hPa | - | - | - | - |
| 1777583230 | 15° C | 70% | 999.1 hPa | - | - | - | - |
| 1777582330 | 15° C | 70% | 999 hPa | - | - | - | - |
| 1777581429 | 15° C | 70% | 999.1 hPa | - | - | - | - |
| 1777580529 | 15° C | 70% | 999.2 hPa | - | - | - | - |
* Rain since midnight (hover to see other rain measurements)
** Current wind speed in m/s (hover to see current wind gust speed)